AIC190 CYYZ-VIDP

Flight info

Callsign AIC190
Flight time N/A
Altitude 31000
Route SEDOG6 BOBSU DCT YWK DCT DUVBI DCT BOKTO/M085F310 DCT 5830N05000W 59N040W 59N030W 59N020W DCT GOMUP/N0497F310 DCT GINGA/N0489F330 DCT TOPPA DCT OSNAD/N0481F350 DCT OMELO DCT OMIFU DCT PITOK DCT BADOR DCT ROMAG DCT UDROS UN743 GAKSU UT310 SIN UN644 KARDE UL851 TBN UM11 REBLO P130 NATSO/N0483F370 P130 MAMED B449 DOLOS B475 NINOP A909 LEMOD N644 DI A466 ELKUX ELKUX7L
Aircraft B77W/H-SDE1E2E3FGHIJ2J3J4J5M1RWXY/LB1D1

Departure

Time N/A
Airport Toronto Pearson International Airport (CYYZ)

Arrival

Time 2026-04-28 09:31
Airport Indira Gandhi International Airport (VIDP)
Time Latitude Longitude Altitude Speed Heading
2026-04-28 09:11 29.47398 75.98710 29904 ft 473 kts 134°
2026-04-28 09:12 29.45221 76.01508 29326 ft 468 kts 134°
2026-04-28 09:12 29.43057 76.04288 28668 ft 465 kts 134°
2026-04-28 09:12 29.40911 76.07044 28021 ft 463 kts 134°
2026-04-28 09:12 29.38769 76.09791 27417 ft 460 kts 134°
2026-04-28 09:13 29.36643 76.12517 26813 ft 457 kts 134°
2026-04-28 09:13 29.34530 76.15224 26200 ft 455 kts 134°
2026-04-28 09:13 29.32446 76.17894 25613 ft 453 kts 134°
2026-04-28 09:13 29.30352 76.20575 25057 ft 451 kts 134°
2026-04-28 09:14 29.28261 76.23249 24529 ft 449 kts 134°
2026-04-28 09:14 29.26181 76.25906 23995 ft 447 kts 134°
2026-04-28 09:14 29.24109 76.28551 23468 ft 445 kts 134°
2026-04-28 09:14 29.22043 76.31187 22883 ft 444 kts 134°
2026-04-28 09:15 29.19984 76.33812 22318 ft 441 kts 134°
2026-04-28 09:15 29.17945 76.36413 21816 ft 437 kts 134°
2026-04-28 09:15 29.15921 76.38991 21327 ft 433 kts 134°
2026-04-28 09:15 29.13916 76.41544 20819 ft 430 kts 134°
2026-04-28 09:16 29.11919 76.44083 20296 ft 428 kts 134°
2026-04-28 09:16 29.09930 76.46613 19786 ft 426 kts 134°
2026-04-28 09:16 29.07955 76.49122 19301 ft 424 kts 134°
2026-04-28 09:16 29.05989 76.51618 18808 ft 422 kts 134°
2026-04-28 09:17 29.04019 76.54118 18256 ft 423 kts 134°
2026-04-28 09:17 29.02082 76.56575 17762 ft 421 kts 134°
2026-04-28 09:17 29.00129 76.59050 17262 ft 418 kts 134°
2026-04-28 09:17 28.98194 76.61502 16837 ft 413 kts 134°
2026-04-28 09:18 28.96277 76.63930 16388 ft 409 kts 134°
2026-04-28 09:18 28.94374 76.66339 15929 ft 406 kts 134°
2026-04-28 09:18 28.92496 76.68713 15683 ft 397 kts 134°
2026-04-28 09:18 28.90681 76.71010 15680 ft 381 kts 134°
2026-04-28 09:19 28.88940 76.73212 15678 ft 366 kts 135°
2026-04-28 09:19 28.87264 76.75329 15671 ft 352 kts 135°
2026-04-28 09:19 28.85643 76.77375 15439 ft 347 kts 135°
2026-04-28 09:19 28.84012 76.79428 15015 ft 349 kts 135°
2026-04-28 09:20 28.82383 76.81479 14569 ft 351 kts 135°
2026-04-28 09:20 28.80733 76.83556 14064 ft 355 kts 135°
2026-04-28 09:20 28.79088 76.85625 13585 ft 358 kts 135°
2026-04-28 09:20 28.77387 76.87763 13045 ft 361 kts 135°
2026-04-28 09:21 28.75699 76.89886 12494 ft 358 kts 135°
2026-04-28 09:21 28.74086 76.91914 11925 ft 341 kts 137°
2026-04-28 09:21 28.72235 76.93480 11309 ft 316 kts 164°
2026-04-28 09:21 28.70193 76.93832 10764 ft 291 kts 188°
2026-04-28 09:22 28.68201 76.93518 10238 ft 283 kts 198°
2026-04-28 09:22 28.66465 76.92569 9705 ft 284 kts 227°
2026-04-28 09:22 28.65476 76.90670 9159 ft 284 kts 259°
2026-04-28 09:22 28.65586 76.88435 8618 ft 287 kts 286°
2026-04-28 09:23 28.66269 76.86312 8061 ft 287 kts 294°
2026-04-28 09:23 28.67266 76.84306 7528 ft 294 kts 300°
2026-04-28 09:23 28.68374 76.82313 6993 ft 300 kts 301°
2026-04-28 09:23 28.69504 76.80293 6469 ft 305 kts 301°
2026-04-28 09:24 28.70633 76.78234 5931 ft 304 kts 297°
2026-04-28 09:24 28.71261 76.76026 5361 ft 287 kts 273°
2026-04-28 09:24 28.70926 76.73861 5169 ft 276 kts 246°
2026-04-28 09:24 28.69772 76.72158 5009 ft 271 kts 218°
2026-04-28 09:25 28.68074 76.71277 4820 ft 269 kts 189°
2026-04-28 09:25 28.66279 76.71642 4517 ft 268 kts 149°
2026-04-28 09:25 28.64958 76.73114 4232 ft 268 kts 120°
2026-04-28 09:25 28.64318 76.75084 4057 ft 261 kts 103°
2026-04-28 09:26 28.63906 76.77083 3992 ft 257 kts 103°
2026-04-28 09:26 28.63496 76.79022 3986 ft 249 kts 103°
2026-04-28 09:26 28.63076 76.80908 3993 ft 249 kts 103°
2026-04-28 09:26 28.62631 76.82851 3997 ft 257 kts 104°
2026-04-28 09:27 28.61725 76.86796 3987 ft 254 kts 104°
2026-04-28 09:27 28.61281 76.88716 3971 ft 246 kts 104°
2026-04-28 09:27 28.60848 76.90595 3724 ft 245 kts 104°
2026-04-28 09:28 28.60420 76.92456 3425 ft 243 kts 104°
2026-04-28 09:28 28.59992 76.94309 3135 ft 241 kts 105°
2026-04-28 09:28 28.59574 76.96125 2844 ft 233 kts 104°
2026-04-28 09:28 28.59175 76.97856 2544 ft 218 kts 104°
2026-04-28 09:29 28.58806 76.99459 2278 ft 202 kts 104°
2026-04-28 09:29 28.58465 77.00935 2035 ft 183 kts 104°
2026-04-28 09:29 28.58163 77.02246 1797 ft 164 kts 104°
2026-04-28 09:29 28.57876 77.03486 1632 ft 163 kts 104°
2026-04-28 09:30 28.57591 77.04727 1427 ft 160 kts 105°
2026-04-28 09:30 28.57316 77.05922 1211 ft 153 kts 105°
2026-04-28 09:30 28.57059 77.07093 1009 ft 149 kts 106°
2026-04-28 09:30 28.56785 77.08232 819 ft 148 kts 105°
2026-04-28 09:31 28.56531 77.09325 757 ft 131 kts 104°
2026-04-28 09:31 28.56331 77.10192 753 ft 95 kts 105°
2026-04-28 09:31 28.56212 77.10691 752 ft 48 kts 105°
2026-04-28 09:31 28.56090 77.10921 750 ft 26 kts 136°
2026-04-28 09:32 28.56014 77.10967 750 ft 9 kts 191°
2026-04-28 09:32 28.55980 77.10912 751 ft 10 kts 277°
2026-04-28 09:32 28.55993 77.10836 751 ft 10 kts 282°
2026-04-28 09:32 28.56008 77.10758 751 ft 10 kts 284°
2026-04-28 09:33 28.56025 77.10680 754 ft 11 kts 284°
2026-04-28 09:33 28.56045 77.10590 752 ft 14 kts 285°
2026-04-28 09:33 28.56089 77.10411 755 ft 30 kts 285°
2026-04-28 09:33 28.56142 77.10185 751 ft 30 kts 285°
2026-04-28 09:34 28.56195 77.09962 751 ft 30 kts 285°
2026-04-28 09:34 28.56244 77.09734 754 ft 30 kts 283°
2026-04-28 09:34 28.56291 77.09507 752 ft 30 kts 283°
2026-04-28 09:34 28.56344 77.09280 754 ft 30 kts 286°
2026-04-28 09:35 28.56401 77.09055 752 ft 30 kts 286°
2026-04-28 09:35 28.56457 77.08830 751 ft 30 kts 285°
2026-04-28 09:35 28.56508 77.08603 751 ft 30 kts 284°
2026-04-28 09:35 28.56560 77.08377 752 ft 30 kts 284°
2026-04-28 09:36 28.56559 77.08207 751 ft 19 kts 244°
2026-04-28 09:36 28.56493 77.08074 750 ft 19 kts 242°
2026-04-28 09:36 28.56417 77.07992 751 ft 15 kts 189°
2026-04-28 09:36 28.56334 77.08055 750 ft 15 kts 152°
2026-04-28 09:37 28.56232 77.08043 753 ft 15 kts 194°
2026-04-28 09:37 28.56131 77.08012 751 ft 15 kts 195°
2026-04-28 09:37 28.56062 77.08006 752 ft 7 kts 151°
2026-04-28 09:37 28.56022 77.08031 750 ft 7 kts 151°
2026-04-28 09:38 28.55986 77.08065 751 ft 7 kts 107°
2026-04-28 09:38 28.56012 77.08115 752 ft 8 kts 53°
2026-04-28 09:38 28.56023 77.08138 750 ft 1 kts 59°